Total_Precipitation_Accumulation
0.00 0.00 0.00 0.00 0.00 0.00 0.00 0.00 0.00 0.00 0.00 0.00 0.00 0.00 0.00 0.00 0.00 0.00 0.00 0.00 0.00 0.00 0.00 0.00 0.00 0.00 0.00 0.00 0.00 0.00 0.00 0.06 0.03 0.09 0.31 0.05 0.08 0.07 0.03 0.05 0.08 0.18 0.21 0.17 0.12 0.09 0.06 0.06 0.04 0.09 0.02 0.02 0.01 0.00 0.01 0.01 0.01 0.01 0.02 0.02 0.05 0.06 0.21 0.42 0.01 0.01 0.02 0.01 0.00 0.01 0.01 0.01 0.01 0.00 0.01 0.00 0.01 0.02 0.04 0.06 0.03 0.04 0.07 0.07 0.02 0.01 0.03 0.02 0.03 0.02 0.01 0.02 0.02 0.04 0.04 0.03 0.03
0.00 0.00 0.00 0.00 0.00 0.00 0.00 0.00 0.00 0.00 0.00 0.00 0.00 0.00 0.00 0.00 0.00 0.00 0.00 0.00 0.00 0.00 0.00 0.00 0.00 0.00 0.00 0.00 0.00 0.00 0.01 0.01 0.00 0.02 0.13 0.10 0.09 0.07 0.07 0.07 0.07 0.21 0.15 0.19 0.12 0.12 0.15 0.11 0.04 0.08 0.03 0.03 0.02 0.00 0.01 0.01 0.00 0.01 0.01 0.00 0.00 0.01 0.04 0.19 0.18 0.01 0.01 0.01 0.01 0.01 0.01 0.01 0.01 0.03 0.01 0.03 0.02 0.01 0.04 0.04 0.15 0.07 0.12 0.08 0.12 0.08 0.06 0.08 0.07 0.03 0.02 0.04 0.02 0.02 0.04 0.03 0.03
0.00 0.00 0.00 0.00 0.00 0.00 0.00 0.00 0.00 0.00 0.00 0.00 0.00 0.00 0.00 0.00 0.00 0.00 0.00 0.00 0.00 0.00 0.00 0.00 0.00 0.00 0.00 0.00 0.00 0.06 0.20 0.03 0.01 0.04 0.11 0.16 0.09 0.23 0.15 0.08 0.13 0.19 0.23 0.18 0.18 0.16 0.18 0.14 0.04 0.09 0.05 0.03 0.02 0.00 0.01 0.01 0.01 0.01 0.01 0.00 0.00 0.05 0.02 0.02 0.35 0.05 0.01 0.01 0.01 0.01 0.02 0.02 0.04 0.06 0.09 0.03 0.02 0.00 0.03 0.02 0.12 0.20 0.16 0.10 0.09 0.07 0.03 0.01 0.01 0.03 0.04 0.05 0.05 0.04 0.03 0.03 0.02
0.00 0.00 0.00 0.00 0.00 0.00 0.00 0.00 0.00 0.00 0.00 0.00 0.00 0.00 0.00 0.00 0.00 0.00 0.00 0.00 0.00 0.00 0.00 0.00 0.00 0.00 0.00 0.00 0.02 0.00 0.02 0.02 0.04 0.03 0.13 0.12 0.06 0.10 0.10 0.11 0.20 0.21 0.24 0.16 0.12 0.20 0.19 0.23 0.04 0.06 0.12 0.04 0.02 0.01 0.02 0.01 0.01 0.02 0.02 0.00 0.01 0.01 0.01 0.01 0.04 0.15 0.04 0.01 0.02 0.03 0.03 0.08 0.08 0.10 0.05 0.09 0.01 0.00 0.04 0.06 0.08 0.08 0.05 0.11 0.10 0.09 0.01 0.01 0.02 0.07 0.04 0.03 0.05 0.05 0.04 0.04 0.02
0.00 0.00 0.00 0.00 0.00 0.00 0.00 0.00 0.00 0.00 0.00 0.00 0.00 0.00 0.00 0.00 0.00 0.00 0.00 0.00 0.00 0.00 0.00 0.00 0.00 0.00 0.00 0.02 0.01 0.03 0.04 0.05 0.03 0.02 0.04 0.06 0.03 0.10 0.13 0.12 0.17 0.16 0.24 0.26 0.18 0.10 0.20 0.10 0.04 0.03 0.12 0.03 0.02 0.04 0.01 0.01 0.01 0.01 0.03 0.03 0.02 0.01 0.01 0.01 0.01 0.03 0.03 0.03 0.02 0.05 0.11 0.10 0.07 0.12 0.11 0.08 0.00 0.01 0.03 0.01 0.02 0.08 0.02 0.03 0.03 0.04 0.02 0.01 0.03 0.02 0.03 0.05 0.05 0.05 0.04 0.03 0.02
0.00 0.00 0.00 0.00 0.00 0.00 0.00 0.00 0.00 0.00 0.00 0.00 0.00 0.00 0.00 0.00 0.00 0.00 0.00 0.00 0.00 0.00 0.00 0.00 0.01 0.01 0.01 0.15 0.09 0.15 0.18 0.08 0.03 0.02 0.05 0.14 0.05 0.06 0.21 0.17 0.27 0.36 0.34 0.46 0.24 0.31 0.30 0.04 0.02 0.02 0.04 0.11 0.06 0.02 0.04 0.04 0.02 0.03 0.04 0.13 0.02 0.03 0.02 0.02 0.01 0.02 0.04 0.02 0.02 0.07 0.12 0.15 0.14 0.09 0.06 0.06 0.06 0.04 0.02 0.03 0.01 0.02 0.02 0.03 0.04 0.02 0.03 0.02 0.01 0.01 0.04 0.04 0.09 0.04 0.04 0.03 0.03
0.00 0.00 0.00 0.00 0.00 0.00 0.00 0.00 0.00 0.00 0.00 0.00 0.00 0.00 0.00 0.00 0.00 0.00 0.00 0.00 0.00 0.00 0.00 0.00 0.00 0.00 0.02 0.02 0.01 0.05 0.12 0.01 0.06 0.04 0.05 0.06 0.08 0.23 0.36 0.46 0.54 0.65 0.54 0.58 0.25 0.30 0.29 0.03 0.01 0.04 0.09 0.13 0.05 0.04 0.05 0.06 0.04 0.07 0.04 0.07 0.22 0.06 0.04 0.02 0.01 0.05 0.04 0.02 0.05 0.08 0.11 0.14 0.12 0.09 0.05 0.05 0.03 0.02 0.02 0.00 0.01 0.01 0.03 0.04 0.04 0.01 0.01 0.03 0.01 0.02 0.03 0.07 0.03 0.03 0.01 0.02 0.00
0.00 0.00 0.00 0.00 0.00 0.00 0.00 0.00 0.00 0.00 0.00 0.00 0.00 0.00 0.00 0.00 0.00 0.00 0.00 0.00 0.00 0.00 0.00 0.00 0.00 0.02 0.27 0.02 0.12 0.03 0.02 0.04 0.08 0.04 0.03 0.04 0.16 0.27 0.46 0.49 0.46 0.62 0.35 0.31 0.25 0.23 0.10 0.02 0.06 0.06 0.17 0.11 0.15 0.10 0.06 0.05 0.05 0.05 0.07 0.08 0.20 0.15 0.05 0.04 0.02 0.03 0.01 0.02 0.04 0.10 0.10 0.07 0.14 0.13 0.33 0.23 0.09 0.02 0.01 0.00 0.00 0.01 0.01 0.02 0.07 0.02 0.02 0.01 0.01 0.01 0.03 0.03 0.01 0.01 0.00 0.01 0.00
0.00 0.00 0.00 0.00 0.00 0.00 0.00 0.00 0.00 0.00 0.00 0.00 0.00 0.00 0.00 0.00 0.00 0.00 0.00 0.00 0.00 0.00 0.00 0.00 0.00 0.10 0.09 0.11 0.19 0.09 0.08 0.04 0.05 0.08 0.09 0.16 0.46 0.75 1.13 0.86 0.61 0.50 0.34 0.34 0.30 0.25 0.19 0.11 0.08 0.07 0.16 0.13 0.10 0.10 0.04 0.03 0.03 0.02 0.04 0.09 0.06 0.14 0.17 0.04 0.04 0.01 0.01 0.02 0.04 0.08 0.07 0.08 0.07 0.11 0.21 0.19 0.27 0.07 0.01 0.03 0.00 0.01 0.02 0.02 0.02 0.02 0.01 0.03 0.03 0.01 0.04 0.02 0.01 0.01 0.00 0.00 0.00
0.00 0.00 0.00 0.00 0.00 0.00 0.00 0.00 0.00 0.00 0.00 0.00 0.00 0.00 0.00 0.00 0.00 0.00 0.00 0.00 0.00 0.00 0.00 0.00 0.00 0.02 0.05 0.21 0.09 0.32 0.23 0.22 0.08 0.12 0.25 0.34 0.69 1.00 1.04 1.02 0.86 0.50 0.54 0.48 0.26 0.35 0.23 0.59 0.16 0.10 0.48 0.18 0.04 0.10 0.11 0.04 0.07 0.05 0.02 0.02 0.09 0.06 0.04 0.03 0.04 0.01 0.01 0.02 0.03 0.06 0.03 0.04 0.05 0.14 0.11 0.20 0.24 0.08 0.02 0.01 0.01 0.01 0.03 0.02 0.04 0.01 0.02 0.03 0.03 0.02 0.06 0.03 0.01 0.01 0.01 0.00 0.00
0.00 0.00 0.00 0.00 0.00 0.00 0.00 0.00 0.00 0.00 0.00 0.00 0.00 0.00 0.00 0.00 0.00 0.00 0.00 0.00 0.00 0.00 0.00 0.00 0.01 0.03 0.01 0.11 0.26 0.15 0.25 0.20 0.31 0.55 0.41 0.50 0.76 0.93 0.86 0.81 0.83 0.82 0.72 0.66 0.48 0.26 0.19 0.28 0.29 0.09 0.07 0.08 0.18 0.27 0.16 0.09 0.09 0.11 0.04 0.09 0.07 0.05 0.03 0.07 0.03 0.01 0.01 0.03 0.05 0.09 0.03 0.03 0.12 0.07 0.11 0.18 0.26 0.10 0.01 0.01 0.01 0.01 0.02 0.05 0.03 0.03 0.02 0.06 0.03 0.02 0.05 0.01 0.00 0.00 0.00 0.00 0.00
0.00 0.00 0.00 0.00 0.00 0.00 0.00 0.00 0.00 0.00 0.00 0.00 0.00 0.00 0.00 0.00 0.00 0.00 0.00 0.00 0.00 0.00 0.00 0.00 0.04 0.07 0.13 0.10 0.18 0.38 0.46 0.45 0.71 0.52 0.60 0.61 0.71 0.46 0.62 0.58 0.42 0.34 0.33 0.34 0.22 0.21 0.24 0.16 0.21 0.32 0.15 0.19 0.57 0.33 0.32 0.19 0.14 0.11 0.04 0.03 0.05 0.03 0.02 0.02 0.02 0.01 0.06 0.07 0.10 0.07 0.06 0.07 0.08 0.06 0.05 0.05 0.09 0.04 0.05 0.02 0.03 0.04 0.03 0.05 0.03 0.02 0.01 0.02 0.02 0.01 0.02 0.00 0.00 0.00 0.00 0.00 0.00
0.00 0.00 0.00 0.00 0.00 0.00 0.00 0.00 0.00 0.00 0.00 0.00 0.00 0.00 0.00 0.00 0.00 0.00 0.00 0.00 0.00 0.00 0.00 0.00 0.05 0.01 0.88 0.07 0.23 0.34 0.32 0.44 0.34 0.47 0.47 0.39 0.46 0.48 0.45 0.32 0.36 0.21 0.15 0.16 0.15 0.21 0.18 0.25 0.18 0.20 0.41 0.34 0.59 0.38 0.31 0.32 0.18 0.13 0.09 0.10 0.09 0.10 0.06 0.03 0.07 0.08 0.11 0.13 0.15 0.05 0.06 0.12 0.04 0.05 0.06 0.02 0.04 0.04 0.05 0.06 0.04 0.05 0.04 0.03 0.01 0.01 0.01 0.01 0.00 0.01 0.01 0.01 0.00 0.00 0.00 0.00 0.00
0.00 0.00 0.00 0.00 0.00 0.00 0.00 0.00 0.00 0.00 0.00 0.00 0.00 0.00 0.00 0.00 0.00 0.00 0.00 0.00 0.00 0.00 0.00 0.00 0.00 0.04 0.40 0.07 0.31 0.34 0.34 0.24 0.13 0.19 0.15 0.21 0.27 0.23 0.39 0.33 0.26 0.12 0.16 0.10 0.10 0.17 0.24 0.17 0.35 0.19 0.29 0.38 0.58 0.37 0.44 0.22 0.17 0.17 0.38 0.22 0.32 0.44 0.48 0.29 0.15 0.19 0.36 0.30 0.31 0.19 0.22 0.06 0.05 0.13 0.05 0.02 0.04 0.03 0.02 0.02 0.04 0.05 0.03 0.02 0.01 0.01 0.01 0.00 0.00 0.00 0.01 0.01 0.00 0.00 0.00 0.00 0.00
0.00 0.00 0.00 0.00 0.00 0.00 0.00 0.00 0.00 0.00 0.00 0.00 0.00 0.00 0.00 0.00 0.00 0.00 0.00 0.00 0.00 0.00 0.00 0.00 0.08 0.02 0.44 0.10 0.14 0.11 0.17 0.25 0.11 0.08 0.16 0.16 0.11 0.19 0.22 0.29 0.37 0.16 0.15 0.12 0.14 0.13 0.31 0.24 0.27 0.37 0.52 0.54 0.47 0.58 1.26 0.38 0.32 0.58 0.51 0.43 0.57 0.41 0.37 0.23 0.21 0.42 0.39 0.46 0.37 0.46 0.36 0.50 0.32 0.22 0.11 0.12 0.03 0.01 0.06 0.05 0.02 0.04 0.02 0.01 0.01 0.01 0.01 0.01 0.01 0.00 0.01 0.01 0.00 0.00 0.00 0.00 0.00
0.00 0.00 0.00 0.00 0.00 0.00 0.00 0.00 0.00 0.00 0.00 0.00 0.00 0.00 0.00 0.00 0.00 0.00 0.00 0.00 0.04 0.00 0.00 0.02 0.00 0.02 0.07 0.07 0.11 0.03 0.09 0.13 0.16 0.12 0.14 0.24 0.18 0.14 0.24 0.27 0.29 0.18 0.15 0.15 0.20 0.23 0.23 0.20 0.33 0.40 0.30 0.33 0.41 0.66 0.59 0.87 0.66 1.08 1.10 0.73 0.76 0.42 0.46 0.48 0.81 0.53 0.62 0.73 0.64 0.50 0.56 0.58 0.48 0.51 0.41 0.24 0.10 0.01 0.03 0.09 0.02 0.02 0.01 0.01 0.02 0.01 0.02 0.02 0.02 0.01 0.00 0.00 0.00 0.00 0.00 0.00 0.00
0.00 0.00 0.00 0.00 0.00 0.00 0.00 0.00 0.00 0.00 0.00 0.00 0.00 0.00 0.00 0.00 0.00 0.00 0.00 0.00 0.00 0.00 0.00 0.00 0.02 0.02 0.04 0.14 0.06 0.06 0.11 0.09 0.14 0.19 0.15 0.21 0.24 0.24 0.31 0.40 0.28 0.17 0.18 0.27 0.10 0.13 0.22 0.36 0.27 0.43 0.37 0.44 0.57 0.83 0.79 0.75 0.39 0.75 0.77 0.44 0.35 0.32 0.30 0.42 0.43 0.49 0.72 0.66 0.73 0.78 0.53 0.47 0.47 0.49 0.38 0.35 0.21 0.30 0.03 0.02 0.03 0.04 0.01 0.02 0.02 0.04 0.02 0.02 0.04 0.01 0.00 0.00 0.00 0.00 0.00 0.00 0.00
0.00 0.00 0.00 0.00 0.00 0.00 0.00 0.00 0.00 0.00 0.00 0.00 0.00 0.00 0.00 0.00 0.00 0.00 0.00 0.00 0.00 0.01 0.03 0.02 0.01 0.08 0.08 0.07 0.08 0.01 0.11 0.11 0.17 0.12 0.17 0.17 0.20 0.27 0.33 0.31 0.27 0.16 0.15 0.25 0.17 0.16 0.18 0.24 0.38 0.46 0.47 0.50 0.50 0.80 0.99 0.75 0.84 0.50 1.15 0.83 0.47 0.63 0.42 0.33 0.46 0.55 0.99 0.87 0.84 0.70 0.61 0.77 0.63 0.90 0.40 0.59 0.27 0.21 0.17 0.03 0.02 0.05 0.02 0.01 0.01 0.01 0.02 0.01 0.02 0.02 0.01 0.00 0.00 0.00 0.00 0.00 0.00
0.00 0.00 0.00 0.00 0.00 0.00 0.00 0.00 0.00 0.00 0.00 0.00 0.00 0.00 0.00 0.00 0.00 0.00 0.05 0.01 0.00 0.01 0.01 0.02 0.05 0.04 0.12 0.12 0.07 0.10 0.10 0.21 0.24 0.25 0.27 0.22 0.16 0.23 0.44 0.28 0.26 0.19 0.24 0.18 0.27 0.20 0.22 0.35 0.65 0.56 0.64 0.49 0.55 0.50 0.73 0.56 0.72 0.87 0.89 0.54 0.77 0.76 1.11 0.80 0.61 1.05 0.88 0.81 0.75 0.98 0.69 0.80 0.93 0.91 0.62 0.37 0.26 0.28 0.20 0.04 0.04 0.06 0.02 0.02 0.01 0.01 0.01 0.01 0.01 0.01 0.01 0.01 0.00 0.00 0.00 0.01 0.01
0.00 0.00 0.00 0.00 0.00 0.00 0.00 0.00 0.00 0.00 0.00 0.00 0.00 0.00 0.00 0.00 0.00 0.00 0.00 0.04 0.00 0.02 0.00 0.03 0.08 0.16 0.12 0.11 0.12 0.14 0.19 0.26 0.36 0.84 0.67 0.59 0.20 0.35 0.42 0.31 0.37 0.41 0.26 0.31 0.55 0.45 0.44 0.57 0.51 0.82 0.62 1.01 0.56 0.51 0.72 0.80 0.58 0.81 0.71 0.77 0.68 0.83 0.64 0.53 0.77 0.90 0.70 0.85 0.93 0.98 0.61 0.88 0.76 1.40 1.14 1.14 0.86 0.49 0.34 0.09 0.10 0.09 0.03 0.02 0.01 0.02 0.01 0.01 0.02 0.01 0.01 0.00 0.00 0.01 0.00 0.00 0.00
0.00 0.00 0.00 0.00 0.00 0.00 0.00 0.00 0.00 0.00 0.00 0.00 0.00 0.00 0.00 0.00 0.00 0.00 0.00 0.04 0.06 0.17 0.01 0.02 0.10 0.14 0.11 0.06 0.07 0.15 0.27 0.32 0.43 0.85 0.88 0.40 0.34 0.77 1.38 1.16 1.38 1.24 1.59 1.63 1.93 1.67 1.25 0.54 0.30 0.47 0.59 0.52 0.59 0.66 0.47 0.75 0.47 0.64 1.02 0.65 0.66 0.60 0.67 0.79 0.68 0.68 0.68 0.77 1.52 1.38 0.63 0.73 0.69 1.22 0.85 0.65 0.62 0.48 0.54 0.40 0.25 0.15 0.13 0.13 0.02 0.05 0.10 0.26 0.07 0.19 0.03 0.01 0.01 0.02 0.01 0.02 0.00
0.00 0.00 0.00 0.00 0.00 0.00 0.00 0.00 0.00 0.00 0.00 0.00 0.00 0.00 0.00 0.00 0.00 0.00 0.00 0.00 0.02 0.01 0.01 0.00 0.02 0.03 0.09 0.11 0.13 0.13 0.25 0.27 0.40 0.41 0.48 0.69 0.71 1.14 1.81 3.02 3.27 3.48 3.53 2.08 2.44 1.71 1.24 0.71 0.62 0.42 0.65 0.32 1.06 0.67 0.47 0.43 0.62 0.80 1.16 1.42 1.06 0.66 0.81 1.14 0.99 0.87 0.86 1.05 1.16 1.39 0.62 0.78 0.90 0.87 1.15 0.73 1.15 1.10 0.99 0.87 0.44 0.48 0.47 0.30 0.12 0.16 0.11 0.05 0.04 0.14 0.16 0.17 0.03 0.02 0.03 0.03 0.00
0.00 0.00 0.00 0.00 0.00 0.00 0.00 0.00 0.00 0.00 0.00 0.00 0.00 0.00 0.00 0.00 0.00 0.00 0.00 0.00 0.00 0.00 0.01 0.05 0.10 0.06 0.08 0.12 0.29 0.21 0.39 0.67 0.96 0.86 0.52 1.41 2.62 3.38 4.48 2.58 1.79 1.73 2.35 2.74 2.56 1.58 0.98 0.92 0.75 0.87 0.64 0.71 1.01 0.95 1.02 0.67 0.95 1.15 1.25 1.10 0.68 0.69 0.70 0.84 1.03 0.62 0.81 0.75 1.14 1.65 0.87 1.02 1.04 0.81 1.08 0.62 0.68 0.92 1.10 0.82 0.51 0.91 0.77 0.63 0.24 0.16 0.07 0.05 0.14 0.16 0.19 0.33 0.33 0.12 0.05 0.03 0.04
0.00 0.00 0.00 0.00 0.00 0.00 0.00 0.00 0.00 0.00 0.00 0.00 0.00 0.00 0.00 0.00 0.00 0.00 0.00 0.00 0.00 0.00 0.02 0.03 0.08 0.11 0.09 0.07 0.17 0.35 0.76 0.86 1.72 1.69 3.30 3.31 4.21 4.89 4.37 3.11 3.29 2.98 1.07 1.62 1.27 1.19 0.66 0.44 0.61 1.22 0.66 1.18 1.71 0.82 0.81 0.78 0.82 0.90 1.12 0.77 0.90 0.61 0.64 0.54 0.87 0.48 0.72 0.89 1.09 1.13 0.55 1.01 0.97 0.63 0.79 0.92 0.55 1.36 1.87 1.48 0.79 0.87 0.85 0.75 0.49 0.16 0.09 0.07 0.42 0.63 0.44 0.49 0.24 0.15 0.06 0.01 0.01
0.00 0.00 0.00 0.00 0.00 0.00 0.00 0.00 0.00 0.00 0.00 0.00 0.00 0.00 0.00 0.00 0.00 0.00 0.00 0.00 0.00 0.00 0.00 0.02 0.04 0.09 0.11 0.07 0.11 0.37 0.66 1.42 1.87 3.18 4.46 5.35 4.85 4.53 3.09 2.96 3.54 4.47 2.67 1.55 1.13 0.61 0.27 0.48 0.52 0.71 1.33 0.89 1.10 1.00 0.67 0.55 0.92 0.55 0.46 1.00 0.62 1.30 0.54 0.54 0.73 0.87 1.02 0.85 1.07 0.63 1.00 0.99 0.67 1.06 0.81 0.64 0.55 1.14 1.16 1.76 0.95 0.86 0.70 0.63 0.33 0.16 0.21 0.15 0.39 0.58 0.56 0.47 0.26 0.17 0.28 0.13 0.22
0.00 0.00 0.00 0.00 0.00 0.00 0.00 0.00 0.00 0.00 0.00 0.00 0.00 0.00 0.00 0.00 0.00 0.00 0.00 0.00 0.00 0.00 0.00 0.01 0.06 0.08 0.10 0.10 0.13 0.21 0.90 1.51 2.47 3.08 3.76 3.49 3.61 3.97 3.48 3.68 4.00 3.45 4.24 1.94 0.97 0.38 0.39 0.48 0.30 0.24 0.48 0.77 0.82 0.53 0.69 0.74 1.19 0.99 0.96 1.05 0.60 0.66 0.61 0.80 0.69 1.69 1.38 0.98 0.64 0.47 0.57 1.18 0.93 0.93 0.65 0.79 0.64 0.88 0.81 1.36 2.46 1.21 0.62 0.78 0.79 0.32 0.18 0.64 0.61 0.79 0.83 0.87 0.39 0.19 0.27 0.21 0.29
0.00 0.00 0.00 0.00 0.00 0.00 0.00 0.00 0.00 0.00 0.00 0.00 0.00 0.00 0.00 0.00 0.00 0.00 0.00 0.00 0.00 0.01 0.00 0.03 0.04 0.07 0.11 0.15 0.20 0.43 0.33 0.52 2.28 2.40 2.61 2.22 2.33 3.16 2.60 2.09 2.49 2.47 1.78 1.09 0.81 0.72 0.40 0.28 0.30 0.26 0.68 0.50 0.32 0.49 0.47 0.89 0.76 0.61 0.97 0.45 0.44 0.57 0.63 0.52 0.60 1.05 0.63 0.82 0.62 0.48 1.00 1.11 1.43 1.12 0.75 0.76 0.96 1.63 1.36 1.67 1.99 1.29 0.95 1.09 1.12 0.46 0.25 0.51 0.79 0.75 0.64 0.63 0.38 0.28 0.31 0.45 0.09
0.00 0.00 0.00 0.00 0.00 0.00 0.00 0.00 0.00 0.00 0.00 0.00 0.00 0.00 0.00 0.00 0.00 0.00 0.00 0.00 0.00 0.05 0.01 0.03 0.03 0.04 0.08 0.13 0.17 0.16 0.22 1.15 1.53 1.71 1.98 2.28 3.55 2.45 1.32 1.78 3.12 3.10 1.50 0.84 0.57 0.39 0.30 0.28 0.22 0.61 0.48 0.63 0.68 0.47 0.76 0.74 0.72 0.54 0.42 0.30 0.73 0.38 0.26 0.44 0.48 0.58 0.50 0.61 0.69 0.89 0.68 0.96 0.88 0.90 1.22 1.24 1.58 1.63 1.09 1.18 1.61 1.96 2.05 1.15 1.00 0.86 0.59 0.42 0.27 0.27 0.65 0.78 0.56 0.78 0.50 0.31 0.44
0.00 0.00 0.00 0.00 0.00 0.00 0.00 0.00 0.00 0.00 0.00 0.00 0.00 0.00 0.00 0.00 0.00 0.00 0.00 0.01 0.00 0.02 0.01 0.03 0.02 0.07 0.12 0.20 0.30 0.29 0.28 0.40 0.35 0.92 1.39 1.70 1.96 2.06 1.91 2.47 1.97 1.53 1.22 1.05 0.57 0.32 0.23 0.23 0.18 0.48 0.58 1.10 1.09 0.91 0.74 0.61 0.98 0.46 0.42 0.63 0.24 0.34 0.32 0.45 0.51 0.56 0.45 0.43 0.57 0.61 0.78 0.57 0.58 0.60 1.04 0.84 1.20 1.17 1.40 0.91 1.28 1.13 1.80 1.92 1.51 1.43 0.72 0.72 0.44 0.36 0.47 0.60 0.54 0.30 0.28 0.29 0.15
0.00 0.00 0.00 0.00 0.00 0.00 0.00 0.00 0.00 0.00 0.00 0.00 0.00 0.00 0.00 0.00 0.00 0.00 0.01 0.01 0.00 0.01 0.03 0.05 0.06 0.11 0.09 0.09 0.38 0.48 0.49 0.41 0.38 0.87 1.11 1.08 1.25 1.13 1.52 0.99 1.08 0.87 1.01 1.08 0.28 0.27 0.24 0.27 0.25 0.81 0.72 1.02 1.31 0.89 0.79 0.89 0.88 0.52 0.63 0.42 0.29 0.21 0.49 0.55 0.51 0.51 0.55 0.56 0.52 0.78 0.74 0.59 0.81 0.71 0.92 1.19 0.80 0.99 1.13 0.81 0.83 1.18 1.56 1.50 2.28 1.91 1.55 1.03 0.42 0.45 0.62 0.55 0.45 0.36 0.32 0.59 0.25
0.00 0.00 0.00 0.00 0.00 0.00 0.00 0.00 0.00 0.00 0.00 0.00 0.00 0.00 0.00 0.00 0.00 0.00 0.01 0.01 0.00 0.01 0.02 0.07 0.04 0.10 0.11 0.06 0.13 0.28 0.32 0.33 0.43 1.01 0.83 0.64 0.82 0.56 0.95 0.87 0.71 0.83 0.67 0.91 0.19 0.26 0.19 0.24 0.36 0.67 1.11 1.20 1.08 0.88 1.00 0.74 0.80 0.31 0.68 0.32 0.47 0.20 0.16 0.29 0.62 0.57 0.55 0.49 0.79 0.89 0.45 0.38 0.74 0.47 1.01 1.08 0.89 1.22 0.68 0.72 1.04 1.01 1.07 1.54 1.80 1.91 1.51 1.30 0.98 0.59 0.47 0.30 0.29 0.29 0.34 0.39 0.44
0.00 0.00 0.00 0.00 0.00 0.00 0.00 0.00 0.00 0.00 0.00 0.00 0.00 0.00 0.00 0.00 0.00 0.00 0.01 0.01 0.00 0.00 0.03 0.08 0.05 0.10 0.11 0.05 0.16 0.23 0.34 0.53 0.62 0.54 1.12 0.68 0.70 0.86 0.94 1.08 1.18 1.18 1.14 0.76 0.34 0.29 0.26 0.75 0.48 0.56 0.95 0.68 0.71 1.36 0.63 0.84 0.68 0.40 0.47 0.41 0.44 0.23 0.20 0.23 0.16 0.45 0.49 0.84 0.73 0.43 0.32 0.38 0.51 0.34 0.69 0.86 0.91 0.98 1.00 1.12 1.66 1.35 1.00 1.21 1.14 2.30 1.65 1.49 1.42 0.86 0.51 0.26 0.22 0.20 0.25 0.26 0.30
0.00 0.00 0.00 0.00 0.00 0.00 0.00 0.00 0.00 0.00 0.00 0.00 0.00 0.00 0.00 0.00 0.00 0.00 0.01 0.01 0.00 0.01 0.02 0.04 0.05 0.06 0.09 0.10 0.08 0.05 0.20 0.33 0.21 0.38 0.52 0.82 0.60 0.54 1.68 1.90 1.75 1.41 1.28 0.77 0.31 0.36 0.36 0.52 0.24 0.42 0.54 0.51 0.86 0.96 0.54 0.38 0.55 0.48 0.51 0.42 0.31 0.30 0.30 0.42 0.30 0.23 0.52 0.20 0.20 0.19 0.12 0.15 0.20 0.20 0.52 0.60 0.55 1.17 1.39 1.55 2.45 1.46 0.89 0.85 1.37 2.02 1.06 1.17 1.30 1.47 0.69 0.54 0.39 0.28 0.29 0.40 0.45
0.00 0.00 0.00 0.00 0.00 0.00 0.00 0.00 0.00 0.00 0.00 0.00 0.00 0.00 0.00 0.00 0.00 0.00 0.02 0.01 0.01 0.02 0.02 0.04 0.05 0.05 0.07 0.09 0.06 0.05 0.05 0.08 0.08 0.11 0.34 0.90 1.04 0.69 1.29 1.38 1.69 1.06 0.94 0.69 0.48 0.79 0.69 0.41 0.44 0.84 0.76 0.85 0.99 0.55 0.73 0.57 0.41 0.43 0.57 0.53 0.52 0.70 0.45 0.29 0.46 0.53 0.43 0.25 0.21 0.15 0.10 0.07 0.06 0.17 0.20 0.33 0.76 0.54 0.70 1.51 1.66 1.26 0.76 0.88 1.51 1.64 1.67 1.23 1.50 1.30 1.12 0.64 0.39 0.58 0.72 0.56 0.63
0.00 0.00 0.00 0.00 0.00 0.00 0.00 0.00 0.00 0.00 0.00 0.00 0.00 0.00 0.00 0.00 0.00 0.01 0.00 0.02 0.01 0.01 0.01 0.04 0.06 0.05 0.08 0.06 0.05 0.06 0.08 0.06 0.21 0.31 0.55 0.61 0.63 0.83 0.89 0.92 1.19 0.91 0.83 0.54 0.43 1.25 0.68 0.77 0.44 0.71 0.45 0.42 0.54 0.79 0.36 0.40 0.37 0.58 0.71 0.56 0.42 0.56 0.69 0.36 0.29 0.60 0.45 0.27 0.33 0.35 0.12 0.29 0.07 0.17 0.18 0.09 0.12 0.21 0.48 0.48 1.12 1.04 0.63 0.77 1.30 1.95 1.82 1.44 1.08 1.04 0.94 1.16 1.09 1.02 1.15 0.93 0.76
0.00 0.00 0.00 0.00 0.00 0.00 0.00 0.00 0.00 0.00 0.00 0.00 0.00 0.00 0.00 0.00 0.00 0.01 0.01 0.01 0.01 0.01 0.02 0.04 0.03 0.04 0.06 0.06 0.04 0.04 0.07 0.06 0.18 0.43 0.73 0.68 0.41 0.98 0.67 0.95 1.06 0.75 0.70 0.59 0.27 0.54 0.57 0.56 0.37 0.36 0.23 0.20 0.35 0.47 0.24 0.36 0.26 0.37 0.14 0.13 0.25 0.29 0.26 0.13 0.05 0.06 0.06 0.09 0.08 0.46 0.26 0.20 0.28 0.15 0.13 0.07 0.07 0.07 0.12 0.27 0.63 1.63 0.44 0.92 1.04 1.44 1.34 1.50 1.08 1.16 1.16 1.34 1.48 1.00 1.18 1.75 1.41
0.00 0.00 0.00 0.00 0.00 0.00 0.00 0.00 0.00 0.00 0.00 0.00 0.00 0.00 0.00 0.00 0.00 0.01 0.00 0.01 0.01 0.01 0.02 0.02 0.02 0.03 0.02 0.03 0.04 0.04 0.05 0.06 0.31 0.55 0.91 0.75 0.88 0.39 0.22 0.24 0.46 0.67 0.63 0.68 0.30 0.36 0.33 0.33 0.33 0.24 0.24 0.28 0.23 0.35 0.27 0.24 0.23 0.28 0.07 0.21 0.24 0.15 0.26 0.31 0.06 0.06 0.05 0.04 0.05 0.09 0.24 0.17 0.13 0.07 0.05 0.10 0.06 0.05 0.08 0.07 0.10 0.19 0.54 0.62 1.07 1.65 1.08 1.62 1.55 1.89 1.69 1.36 1.47 1.61 1.52 2.05 2.20
0.00 0.00 0.00 0.00 0.00 0.00 0.00 0.00 0.00 0.00 0.00 0.00 0.00 0.00 0.00 0.00 0.00 0.01 0.01 0.02 0.01 0.01 0.01 0.01 0.01 0.01 0.01 0.02 0.04 0.05 0.06 0.08 0.24 0.64 0.76 0.63 0.97 0.38 0.21 0.11 0.49 0.64 0.53 0.41 0.24 0.36 0.97 0.77 0.80 0.78 0.40 0.22 0.26 0.23 0.09 0.27 0.28 0.13 0.08 0.14 0.08 0.05 0.03 0.02 0.02 0.02 0.05 0.04 0.08 0.04 0.03 0.02 0.02 0.02 0.03 0.06 0.05 0.06 0.05 0.06 0.05 0.06 0.08 0.19 0.48 0.74 0.79 1.08 1.31 1.23 1.34 1.69 1.64 1.55 1.50 1.74 2.20
0.00 0.00 0.00 0.00 0.00 0.00 0.00 0.00 0.00 0.00 0.00 0.00 0.00 0.00 0.00 0.00 0.00 0.00 0.02 0.02 0.01 0.01 0.00 0.00 0.00 0.01 0.01 0.02 0.03 0.07 0.09 0.10 0.35 0.72 0.95 1.12 1.02 0.23 0.16 0.29 0.44 0.64 0.79 0.33 0.26 0.65 1.09 1.86 1.27 0.94 0.50 0.26 0.20 0.32 0.35 0.19 0.25 0.13 0.07 0.08 0.03 0.10 0.02 0.02 0.01 0.01 0.02 0.02 0.04 0.03 0.02 0.02 0.02 0.02 0.02 0.02 0.03 0.02 0.02 0.03 0.02 0.03 0.05 0.05 0.11 0.15 0.18 0.37 0.66 0.77 1.30 1.44 1.89 1.48 1.16 1.38 1.60
0.00 0.00 0.01 0.00 0.00 0.00 0.03 0.00 0.00 0.00 0.00 0.00 0.00 0.00 0.00 0.00 0.00 0.00 0.01 0.01 0.01 0.01 0.01 0.00 0.01 0.00 0.01 0.01 0.04 0.11 0.08 0.10 0.35 0.33 0.72 0.74 0.35 0.31 0.19 0.26 0.44 0.96 0.50 0.69 0.49 0.47 0.49 0.24 0.78 0.81 0.86 0.34 0.36 0.18 0.25 0.31 0.15 0.08 0.08 0.16 0.03 0.01 0.01 0.02 0.02 0.02 0.02 0.03 0.02 0.03 0.02 0.02 0.02 0.02 0.02 0.02 0.02 0.02 0.02 0.02 0.01 0.01 0.02 0.02 0.03 0.06 0.10 0.14 0.33 0.38 0.79 1.13 1.74 1.21 0.75 1.43 0.94
0.00 0.00 0.00 0.00 0.00 0.00 0.00 0.06 0.00 0.00 0.00 0.00 0.00 0.00 0.00 0.00 0.00 0.00 0.00 0.00 0.00 0.00 0.01 0.01 0.01 0.01 0.01 0.05 0.03 0.06 0.11 0.19 0.30 0.64 0.97 0.88 0.80 0.25 0.20 0.24 0.26 0.25 0.63 0.35 0.37 0.38 0.20 0.25 0.95 0.87 0.79 0.25 0.24 0.39 0.29 0.20 0.38 0.12 0.08 0.08 0.02 0.02 0.02 0.02 0.02 0.03 0.03 0.03 0.03 0.03 0.02 0.03 0.02 0.02 0.02 0.03 0.02 0.02 0.03 0.02 0.01 0.01 0.02 0.02 0.04 0.09 0.07 0.05 0.09 0.32 0.24 0.64 0.84 1.07 0.88 0.82 1.15
0.00 0.00 0.00 0.00 0.00 0.00 0.00 0.00 0.00 0.00 0.02 0.00 0.00 0.03 0.00 0.01 0.00 0.00 0.00 0.00 0.00 0.00 0.00 0.00 0.01 0.01 0.02 0.04 0.02 0.19 0.17 0.29 0.53 0.97 0.55 0.59 0.99 1.45 0.76 0.84 0.27 0.24 0.29 0.11 0.04 0.05 0.16 0.29 0.72 0.83 0.62 0.26 0.22 0.50 0.29 0.18 0.08 0.04 0.02 0.01 0.02 0.02 0.04 0.03 0.03 0.06 0.04 0.03 0.02 0.03 0.03 0.03 0.03 0.02 0.02 0.03 0.01 0.02 0.02 0.02 0.02 0.03 0.01 0.01 0.01 0.03 0.05 0.03 0.07 0.05 0.12 0.29 0.27 0.50 0.78 0.71 1.06
0.00 0.02 0.00 0.00 0.00 0.00 0.00 0.00 0.00 0.01 0.05 0.06 0.00 0.01 0.03 0.00 0.00 0.00 0.00 0.00 0.00 0.00 0.00 0.00 0.03 0.01 0.02 0.06 0.04 0.13 0.15 0.29 0.39 0.75 0.74 0.49 1.34 1.06 1.01 0.98 0.45 0.07 0.22 0.16 0.07 0.03 0.03 0.05 0.04 0.53 0.48 0.15 0.26 0.37 0.34 0.38 0.07 0.06 0.01 0.04 0.03 0.02 0.01 0.01 0.02 0.02 0.02 0.02 0.04 0.03 0.02 0.03 0.02 0.02 0.01 0.02 0.02 0.01 0.04 0.03 0.02 0.02 0.02 0.01 0.01 0.03 0.03 0.02 0.03 0.08 0.11 0.26 0.23 0.29 0.40 0.42 0.51
0.02 0.02 0.00 0.00 0.00 0.00 0.00 0.00 0.00 0.03 0.00 0.04 0.00 0.00 0.02 0.01 0.03 0.00 0.00 0.00 0.00 0.00 0.00 0.01 0.03 0.03 0.14 0.18 0.17 0.13 0.17 0.22 0.52 0.61 0.45 0.87 1.31 1.59 1.43 0.84 0.27 0.03 0.03 0.11 0.17 0.12 0.10 0.18 0.39 1.07 0.87 0.13 0.14 0.36 0.18 0.19 0.17 0.11 0.10 0.06 0.07 0.01 0.07 0.01 0.02 0.03 0.03 0.03 0.03 0.04 0.03 0.04 0.02 0.03 0.02 0.01 0.02 0.02 0.02 0.03 0.02 0.02 0.03 0.02 0.02 0.03 0.03 0.02 0.02 0.02 0.05 0.05 0.04 0.10 0.18 0.21 0.30
0.04 0.00 0.00 0.00 0.00 0.03 0.00 0.00 0.02 0.07 0.01 0.09 0.01 0.00 0.01 0.04 0.05 0.00 0.00 0.00 0.02 0.02 0.00 0.04 0.02 0.11 0.24 0.27 0.31 0.12 0.25 0.33 0.06 0.09 0.15 0.49 1.05 1.00 0.64 0.45 0.18 0.06 0.05 0.34 0.46 0.63 0.77 1.16 1.13 0.73 0.13 0.17 0.08 0.06 0.05 0.08 0.19 0.17 0.32 0.05 0.03 0.01 0.01 0.01 0.01 0.01 0.02 0.03 0.03 0.03 0.02 0.02 0.02 0.01 0.01 0.01 0.01 0.01 0.01 0.01 0.01 0.01 0.02 0.01 0.01 0.03 0.03 0.04 0.02 0.03 0.03 0.08 0.06 0.08 0.09 0.11 0.16
0.00 0.00 0.00 0.00 0.00 0.00 0.00 0.01 0.00 0.06 0.01 0.03 0.04 0.05 0.02 0.03 0.03 0.01 0.00 0.01 0.03 0.06 0.01 0.04 0.05 0.10 0.22 0.28 0.25 0.37 0.52 0.35 0.04 0.05 0.05 0.10 0.27 0.96 0.58 0.88 1.62 1.27 0.65 0.11 0.46 0.85 1.79 1.35 0.68 0.10 0.12 0.16 0.09 0.07 0.09 0.10 0.13 0.12 0.16 0.02 0.02 0.01 0.01 0.01 0.01 0.01 0.02 0.02 0.02 0.01 0.01 0.01 0.01 0.01 0.01 0.01 0.01 0.01 0.01 0.01 0.01 0.01 0.01 0.00 0.00 0.00 0.01 0.01 0.02 0.02 0.03 0.04 0.03 0.05 0.09 0.13 0.12
0.00 0.00 0.00 0.01 0.00 0.01 0.00 0.00 0.04 0.03 0.02 0.02 0.02 0.04 0.00 0.05 0.11 0.04 0.11 0.01 0.04 0.01 0.07 0.01 0.03 0.07 0.08 0.07 0.13 0.21 0.29 0.18 0.10 0.08 0.04 0.04 0.06 0.71 0.85 1.15 0.51 0.28 0.88 0.88 1.07 1.37 1.60 1.17 0.50 0.37 0.23 0.20 0.24 0.26 0.18 0.36 0.30 0.36 0.06 0.04 0.02 0.01 0.00 0.00 0.01 0.02 0.01 0.01 0.01 0.01 0.01 0.00 0.00 0.01 0.01 0.01 0.00 0.00 0.00 0.00 0.00 0.00 0.00 0.00 0.00 0.00 0.00 0.00 0.00 0.01 0.01 0.01 0.04 0.05 0.04 0.08 0.11
0.00 0.00 0.01 0.00 0.01 0.01 0.01 0.05 0.04 0.14 0.01 0.03 0.01 0.02 0.06 0.08 0.13 0.03 0.06 0.00 0.01 0.03 0.07 0.07 0.00 0.02 0.03 0.07 0.07 0.24 0.18 0.12 0.10 0.08 0.08 0.09 0.26 0.20 0.15 0.20 0.26 0.92 1.08 0.96 1.15 2.09 2.21 0.86 0.37 0.17 0.12 0.10 0.16 0.39 0.24 0.31 0.37 0.08 0.07 0.03 0.02 0.00 0.00 0.00 0.00 0.01 0.01 0.00 0.00 0.00 0.00 0.00 0.00 0.00 0.00 0.00 0.00 0.00 0.00 0.00 0.00 0.00 0.00 0.00 0.00 0.00 0.00 0.00 0.00 0.00 0.01 0.02 0.03 0.02 0.04 0.03 0.04
0.00 0.00 0.01 0.12 0.14 0.02 0.12 0.08 0.05 0.04 0.03 0.11 0.01 0.02 0.04 0.01 0.20 0.06 0.06 0.04 0.01 0.01 0.03 0.03 0.02 0.02 0.03 0.03 0.08 0.10 0.14 0.16 0.30 0.37 0.54 0.91 0.30 0.10 0.14 0.37 0.45 0.36 1.06 1.38 1.98 1.89 2.07 2.02 1.05 0.25 0.19 0.10 0.05 0.17 0.36 0.15 0.11 0.05 0.04 0.02 0.01 0.01 0.01 0.00 0.00 0.00 0.00 0.00 0.00 0.00 0.00 0.00 0.00 0.00 0.00 0.00 0.00 0.00 0.00 0.00 0.00 0.00 0.00 0.00 0.00 0.00 0.00 0.00 0.00 0.00 0.01 0.01 0.03 0.03 0.04 0.05 0.04
0.00 0.01 0.09 0.08 0.13 0.05 0.02 0.09 0.04 0.09 0.04 0.07 0.10 0.04 0.03 0.03 0.09 0.03 0.03 0.04 0.03 0.02 0.02 0.04 0.04 0.03 0.10 0.08 0.12 0.18 0.25 0.54 0.29 0.33 0.19 0.03 0.09 0.07 0.15 0.34 0.80 0.73 1.17 1.18 1.34 1.17 1.25 1.20 1.61 1.18 0.48 0.15 0.12 0.04 0.14 0.14 0.13 0.04 0.03 0.02 0.01 0.01 0.01 0.01 0.00 0.00 0.00 0.00 0.00 0.00 0.00 0.00 0.00 0.00 0.00 0.00 0.00 0.00 0.00 0.00 0.00 0.00 0.00 0.00 0.00 0.00 0.00 0.00 0.00 0.00 0.01 0.01 0.02 0.02 0.02 0.01 0.04
0.01 0.00 0.01 0.13 0.10 0.08 0.01 0.08 0.05 0.02 0.13 0.09 0.02 0.01 0.01 0.05 0.36 0.01 0.02 0.02 0.06 0.03 0.03 0.03 0.04 0.02 0.06 0.12 0.06 0.41 0.94 0.11 0.06 0.08 0.05 0.04 0.13 0.21 0.20 0.41 0.39 0.84 1.22 0.90 1.51 1.47 1.39 1.18 1.42 1.07 1.94 1.20 0.66 0.21 0.18 0.18 0.04 0.03 0.02 0.02 0.01 0.01 0.01 0.00 0.00 0.00 0.00 0.00 0.00 0.00 0.00 0.00 0.00 0.00 0.00 0.00 0.00 0.00 0.00 0.00 0.00 0.00 0.00 0.00 0.00 0.00 0.00 0.00 0.00 0.00 0.00 0.00 0.01 0.01 0.02 0.02 0.02
0.01 0.01 0.00 0.05 0.03 0.02 0.12 0.34 0.03 0.03 0.04 0.03 0.02 0.01 0.06 0.29 0.12 0.07 0.03 0.02 0.04 0.07 0.06 0.02 0.06 0.08 0.08 0.12 0.21 0.70 0.15 0.19 0.36 0.64 0.62 0.47 0.54 0.49 0.35 0.31 0.80 0.52 0.37 0.80 1.18 1.05 1.47 2.17 2.12 1.92 1.91 1.33 0.92 0.36 0.34 0.22 0.04 0.02 0.03 0.02 0.01 0.01 0.00 0.00 0.00 0.00 0.00 0.00 0.00 0.00 0.00 0.00 0.00 0.00 0.00 0.00 0.00 0.00 0.00 0.00 0.00 0.00 0.00 0.00 0.00 0.00 0.00 0.00 0.00 0.00 0.00 0.00 0.00 0.00 0.00 0.01 0.04
0.25 0.00 0.06 0.06 0.02 0.01 0.04 0.00 0.00 0.00 0.00 0.02 0.01 0.05 0.02 0.01 0.01 0.01 0.03 0.03 0.04 0.07 0.10 0.12 0.11 0.12 0.11 0.22 0.20 0.21 0.27 0.07 0.41 0.75 0.89 0.69 0.99 1.62 1.09 1.13 0.89 0.59 0.64 1.07 1.22 1.14 0.82 1.12 1.10 1.83 1.67 1.12 0.69 1.48 0.39 0.24 0.06 0.02 0.02 0.02 0.01 0.00 0.00 0.00 0.00 0.00 0.00 0.00 0.00 0.00 0.00 0.00 0.00 0.00 0.00 0.00 0.00 0.00 0.00 0.00 0.00 0.00 0.00 0.00 0.00 0.00 0.00 0.00 0.00 0.00 0.00 0.00 0.00 0.00 0.00 0.00 0.00
0.03 0.02 0.04 0.00 0.00 0.01 0.01 0.11 0.09 0.07 0.03 0.06 0.01 0.00 0.11 0.01 0.30 0.01 0.01 0.07 0.03 0.16 0.22 0.30 0.24 0.24 0.59 0.53 0.26 0.36 0.27 0.45 0.73 1.08 1.18 0.92 0.87 0.89 0.94 0.59 0.72 0.94 0.86 1.26 0.88 0.88 1.03 1.30 1.33 1.21 0.87 0.62 0.82 1.24 0.72 0.31 0.04 0.03 0.02 0.01 0.01 0.01 0.00 0.00 0.00 0.00 0.00 0.00 0.00 0.00 0.00 0.00 0.00 0.00 0.00 0.00 0.00 0.00 0.00 0.00 0.00 0.00 0.00 0.00 0.00 0.00 0.00 0.00 0.00 0.00 0.00 0.00 0.00 0.00 0.00 0.00 0.00
0.01 0.05 0.03 0.01 0.08 0.08 0.06 0.00 0.01 0.02 0.01 0.09 0.00 0.04 0.02 0.07 0.26 0.04 0.04 0.03 0.07 0.14 0.19 0.16 0.16 0.28 0.11 0.13 0.64 0.34 0.55 0.45 0.49 0.56 0.96 0.89 0.69 0.47 0.55 0.56 0.70 0.49 0.88 0.45 0.46 0.30 0.29 0.32 0.32 0.73 1.71 1.44 1.18 1.22 0.57 0.34 0.09 0.02 0.02 0.01 0.01 0.00 0.00 0.00 0.00 0.00 0.00 0.01 0.00 0.00 0.00 0.00 0.00 0.00 0.00 0.00 0.00 0.00 0.00 0.00 0.00 0.00 0.00 0.00 0.00 0.00 0.00 0.00 0.00 0.00 0.00 0.00 0.00 0.00 0.00 0.00 0.00
0.00 0.00 0.00 0.00 0.01 0.02 0.13 0.11 0.17 0.02 0.18 0.01 0.02 0.02 0.09 0.08 0.20 0.02 0.08 0.03 0.10 0.20 0.11 0.10 0.10 0.11 0.13 0.09 0.26 0.23 0.17 0.31 0.22 0.15 0.22 0.29 0.37 0.76 0.81 0.64 0.47 0.55 0.47 0.59 0.38 0.34 0.17 0.18 0.52 0.79 1.98 1.80 1.62 1.27 1.12 0.28 0.26 0.18 0.03 0.01 0.01 0.01 0.01 0.02 0.04 0.00 0.00 0.00 0.01 0.00 0.00 0.00 0.00 0.00 0.00 0.00 0.00 0.00 0.00 0.00 0.00 0.00 0.00 0.00 0.00 0.00 0.00 0.00 0.00 0.00 0.00 0.00 0.00 0.00 0.00 0.00 0.00
0.04 0.01 0.01 0.03 0.01 0.01 0.02 0.07 0.05 0.15 0.19 0.07 0.11 0.07 0.18 0.23 0.04 0.07 0.11 0.13 0.26 0.43 0.36 0.25 0.22 0.08 0.09 0.07 0.36 0.25 0.19 0.05 0.09 0.40 0.58 0.24 1.32 1.47 1.18 0.91 0.42 1.05 0.79 0.55 0.35 0.57 0.82 0.57 0.79 0.57 0.60 0.39 0.36 0.38 0.58 0.76 0.66 0.65 0.23 0.06 0.07 0.03 0.03 0.05 0.03 0.03 0.02 0.01 0.00 0.01 0.00 0.00 0.00 0.00 0.00 0.01 0.00 0.00 0.00 0.00 0.00 0.00 0.00 0.00 0.00 0.00 0.00 0.00 0.00 0.00 0.00 0.00 0.00 0.00 0.00 0.00 0.00
0.06 0.07 0.12 0.11 0.11 0.16 0.28 0.25 0.01 0.08 0.09 0.07 0.12 0.11 0.17 0.13 0.02 0.13 0.12 0.05 0.12 0.14 0.29 0.56 0.38 0.20 0.12 0.19 1.17 1.17 0.96 0.70 0.40 1.30 0.93 1.52 1.42 1.22 1.00 1.49 1.36 1.43 0.56 0.54 0.44 0.95 1.12 1.51 1.46 1.18 0.56 0.77 0.58 0.18 0.08 0.25 0.95 0.73 0.54 0.24 0.12 0.07 0.04 0.01 0.02 0.08 0.05 0.04 0.03 0.01 0.04 0.02 0.01 0.00 0.00 0.01 0.00 0.02 0.03 0.00 0.02 0.01 0.00 0.00 0.00 0.00 0.00 0.00 0.00 0.00 0.00 0.00 0.00 0.00 0.00 0.00 0.00